Wind_Speed
18 18 19 19 20 19 19 20 19 19 18 18 17 17 17 19 19 17 17 17 16 17 16 15 15 15 16 17 18 19 20 20 20 20 21 22 21 22 22 22 23 23 24 24
16 16 16 17 17 17 18 19 20 18 18 17 16 17 18 18 17 17 16 17 18 17 16 15 15 14 15 17 19 20 20 20 20 21 21 22 22 23 23 24 24 24 24 24
13 13 14 16 16 16 16 17 17 16 16 16 17 17 17 16 17 16 16 16 17 18 16 14 14 15 15 17 18 18 19 19 20 20 21 22 23 23 23 24 24 24 24 24
12 12 13 13 13 13 13 14 15 15 17 16 17 17 17 16 16 17 18 17 16 16 15 15 14 15 16 17 18 18 18 19 20 21 21 21 22 23 24 24 24 24 24 25
11 12 13 13 12 12 11 12 12 14 16 17 17 18 17 18 18 17 17 17 16 16 16 16 16 16 16 17 18 19 19 20 20 21 21 21 22 22 23 23 23 24 25 26
10 10 12 12 13 12 13 14 14 15 16 18 18 19 18 18 17 15 14 15 15 16 16 16 16 16 17 18 19 20 21 21 21 21 22 22 22 23 24 24 24 25 26 26
9 10 11 11 13 13 14 14 14 16 17 17 18 20 19 19 19 17 16 15 15 17 16 16 17 17 18 20 21 21 22 22 22 22 23 23 24 24 25 25 25 26 26 26
9 10 11 12 12 13 14 14 13 13 15 16 17 20 19 19 18 15 15 15 16 15 16 17 17 18 19 20 21 21 21 21 22 22 22 22 23 23 24 25 26 26 26 26
9 9 10 13 14 14 13 13 12 14 15 15 16 16 16 16 15 14 14 15 16 16 16 17 17 18 18 19 20 20 20 19 19 20 21 22 23 23 24 24 25 25 24 24
9 11 12 12 13 14 14 13 13 15 15 14 15 14 14 13 15 14 14 15 16 16 16 17 17 18 18 19 20 20 19 20 21 21 21 22 23 23 24 24 25 24 24 23
9 10 12 12 13 13 14 13 13 15 15 15 15 15 15 15 14 14 15 15 15 15 16 18 19 18 18 19 19 20 21 21 22 22 22 22 23 23 23 23 22 22 22 22
10 9 9 11 12 13 13 14 14 15 15 16 17 17 16 16 15 16 17 16 17 17 18 18 19 19 19 20 20 21 21 21 22 22 21 21 22 22 22 21 20 20 21 21
11 10 10 10 12 14 15 14 15 16 16 17 18 17 16 17 16 17 18 17 18 18 19 20 20 20 20 19 20 20 21 21 22 21 21 21 20 20 20 19 19 19 19 19
12 12 11 11 11 13 15 15 15 16 17 17 17 16 15 16 17 18 18 18 18 19 18 19 19 19 20 20 20 21 20 20 21 20 19 19 19 18 18 17 17 17 17 17
12 12 12 12 12 13 14 14 15 15 16 17 16 16 15 16 16 16 17 17 17 18 17 17 17 18 19 19 19 19 18 19 19 18 17 17 17 17 17 16 15 15 15 16
12 12 12 12 12 12 13 13 14 15 16 16 16 15 15 16 16 16 15 16 17 17 17 17 16 16 17 17 18 18 18 18 16 15 16 16 16 15 15 15 15 14 14 14
14 13 12 11 11 11 12 11 13 14 15 15 14 14 15 16 16 16 15 16 16 17 17 17 16 16 15 15 15 16 17 15 14 13 14 15 15 14 14 14 13 13 12 12
14 13 12 11 11 12 11 10 12 13 14 14 14 14 14 15 15 15 16 16 17 17 17 16 14 13 13 13 14 14 14 12 12 11 12 13 13 12 11 11 11 10 10 10
13 12 12 12 12 12 12 12 12 13 14 13 13 13 13 14 14 15 15 15 15 15 15 13 12 12 12 12 12 12 11 11 10 10 11 11 10 10 9 10 10 10 9 8
12 11 11 11 11 12 12 12 13 13 13 12 12 12 13 14 14 14 14 14 12 13 12 11 10 10 10 10 10 10 10 10 10 9 10 10 9 9 9 9 9 9 8 8
11 10 11 11 11 11 11 12 12 13 12 13 13 13 14 14 14 14 13 12 12 12 12 11 10 9 9 8 9 9 9 9 9 9 8 8 9 8 8 8 8 8 8 7
9 9 10 10 10 10 10 10 11 12 12 12 12 11 12 12 12 12 11 10 11 10 10 9 8 8 8 7 7 6 6 7 7 7 7 7 7 7 7 7 7 7 7 7
9 9 9 9 8 8 8 9 9 10 11 11 10 10 11 11 10 9 9 9 8 8 7 6 6 6 6 6 5 5 5 5 5 5 6 6 5 6 6 6 5 7 7 7
8 8 7 7 7 8 7 8 9 10 10 10 10 10 10 9 8 7 7 7 7 6 5 5 5 5 5 4 3 4 4 4 4 4 5 5 5 5 5 5 6 6 7 7
6 6 6 6 6 6 6 8 8 9 9 10 9 8 8 7 6 6 7 6 6 5 4 4 4 4 3 3 3 3 3 3 3 4 4 5 5 5 5 5 6 6 7 7
6 6 5 5 5 5 6 7 8 8 8 8 7 7 7 6 5 5 5 5 5 4 3 4 4 3 3 3 2 2 3 3 3 3 4 4 5 5 5 5 6 6 7 7
Wind_Direction
195 200 201 202 205 210 214 217 220 222 222 229 236 244 251 257 263 269 275 277 278 284 286 288 286 287 288 288 290 291 291 292 292 290 289 288 287 285 285 285 282 281 281 280
192 193 199 200 202 208 215 219 221 221 226 231 240 247 252 254 262 269 275 279 281 287 288 287 287 287 288 290 292 292 292 291 291 289 288 288 288 287 284 284 282 281 282 282
192 195 199 204 210 215 221 223 220 222 223 230 240 247 252 254 261 267 272 277 285 295 291 292 290 287 289 293 293 293 292 292 289 288 288 287 288 288 285 284 283 282 282 283
190 198 203 208 218 225 221 218 218 222 229 231 240 248 252 256 263 272 276 281 291 298 297 296 291 289 292 295 295 295 293 292 291 291 292 292 290 289 287 286 284 282 283 284
190 198 202 205 210 217 219 220 225 232 235 239 241 251 251 258 265 275 276 281 288 295 296 296 294 294 296 297 296 297 294 294 296 298 297 296 294 290 289 288 286 284 285 285
189 196 200 203 208 219 225 230 232 238 244 249 251 256 255 262 270 275 274 278 283 288 293 295 294 294 296 297 298 297 296 294 294 296 298 295 294 293 291 290 287 286 286 285
189 194 197 207 214 221 228 234 241 246 248 254 258 260 264 268 269 267 268 274 278 282 289 297 295 293 294 297 298 299 296 294 293 294 296 296 294 293 292 291 289 288 289 288
200 200 208 217 224 227 233 240 249 254 257 265 269 270 270 265 265 261 264 272 279 282 289 297 298 295 294 297 297 299 298 296 294 295 297 297 297 296 295 292 290 289 289 289
217 209 212 222 229 234 237 245 252 261 266 276 276 275 270 259 263 264 266 274 282 288 290 294 295 297 296 296 297 298 298 299 301 298 298 298 298 299 297 294 292 291 290 290
232 223 221 225 232 239 244 247 248 258 270 278 277 278 281 274 274 275 273 278 284 285 286 292 295 296 297 297 298 299 299 300 302 300 298 301 301 301 299 297 294 291 291 291
242 235 228 230 234 237 242 246 252 262 269 278 281 282 288 289 286 290 283 283 282 280 285 291 295 295 297 297 299 299 301 302 303 303 301 301 301 301 301 299 297 294 294 292
251 251 244 240 239 245 248 255 260 266 274 281 284 288 290 293 291 290 285 281 281 280 287 290 291 293 295 297 298 299 300 303 305 306 305 305 305 303 302 300 298 296 296 294
251 253 252 242 240 246 252 259 264 268 274 279 284 289 290 290 289 288 284 283 282 283 286 288 287 290 293 295 297 297 300 302 305 306 306 306 305 305 305 304 301 301 300 299
246 253 254 251 251 252 253 256 260 266 273 279 285 290 292 286 287 288 284 283 283 282 282 285 286 290 292 294 297 298 300 303 306 305 305 306 308 308 307 306 306 305 303 302
244 252 256 256 254 256 260 260 258 265 273 279 287 288 291 286 287 290 287 283 285 283 284 284 285 290 293 295 298 299 299 303 305 307 307 310 312 312 311 310 310 311 309 308
249 255 255 254 254 258 261 260 258 265 275 282 288 289 290 286 286 288 289 286 289 288 284 287 289 292 294 294 297 299 301 306 308 310 311 312 315 315 314 314 313 313 315 317
252 256 257 253 255 259 260 266 268 270 277 283 287 288 290 288 285 286 289 291 294 290 289 288 289 291 295 296 299 303 307 306 310 313 315 316 316 317 317 317 319 321 321 323
251 255 257 254 255 255 263 269 273 279 281 284 289 290 291 293 295 293 292 291 295 293 294 291 288 292 295 297 303 307 313 314 313 314 319 321 320 319 319 323 326 327 328 332
249 253 257 256 256 261 264 268 275 281 283 288 290 291 291 292 292 294 296 296 297 296 297 292 292 294 297 301 306 307 312 315 318 321 325 327 326 327 323 323 329 332 336 340
248 253 256 259 262 267 270 274 280 285 289 295 296 295 293 295 294 295 296 297 299 303 305 300 299 299 303 303 306 309 314 317 321 323 323 323 326 332 334 334 337 340 339 339
246 254 258 263 270 276 276 279 283 284 291 295 295 295 293 294 294 295 295 300 305 307 306 307 305 304 302 301 305 307 314 317 321 326 330 331 330 330 333 341 347 348 348 348
246 256 261 266 269 276 284 283 287 291 296 298 299 298 299 299 298 297 296 301 306 309 309 309 303 303 302 303 306 308 316 322 325 331 337 338 339 342 345 347 349 352 354 359
248 261 267 268 273 283 286 286 292 296 299 302 304 305 305 303 302 301 300 303 311 311 314 316 317 315 311 308 308 316 323 331 338 343 344 343 347 357 360 3 3 1 2 4
253 263 268 271 278 285 288 290 295 301 304 305 308 311 310 305 306 310 308 312 315 320 325 324 323 323 320 322 326 334 334 342 351 357 1 3 2 2 9 21 16 9 10 10
245 256 264 273 284 290 293 300 306 308 310 314 316 319 320 314 314 311 316 320 323 325 332 334 331 334 342 351 357 360 360 357 1 6 11 12 10 9 13 21 20 19 20 20
242 248 263 278 286 292 300 309 314 317 322 326 325 327 327 326 323 320 321 321 321 332 340 349 357 355 350 352 1 8 6 10 11 14 16 17 21 25 27 25 25 24 22 20
Height
5834 5838 5842 5845 5847 5851 5853 5855 5856 5859 5861 5862 5862 5863 5865 5865 5865 5865 5865 5865 5864 5864 5863 5863 5863 5861 5860 5860 5859 5858 5856 5854 5852 5850 5849 5847 5845 5844 5843 5841 5840 5839 5837 5835
5833 5836 5840 5842 5844 5847 5849 5851 5854 5856 5857 5858 5859 5860 5861 5862 5862 5862 5863 5862 5861 5860 5860 5860 5859 5858 5857 5856 5854 5853 5851 5850 5848 5846 5844 5842 5840 5839 5837 5835 5834 5832 5831 5829
5831 5835 5837 5839 5841 5844 5846 5849 5851 5853 5853 5855 5856 5857 5858 5858 5858 5859 5859 5858 5858 5857 5857 5856 5855 5854 5853 5851 5849 5848 5846 5844 5843 5841 5839 5836 5835 5833 5831 5829 5827 5826 5824 5822
5830 5833 5835 5837 5839 5841 5843 5846 5848 5850 5851 5852 5854 5854 5855 5855 5855 5855 5855 5854 5854 5854 5853 5852 5851 5850 5848 5847 5845 5843 5841 5839 5837 5835 5833 5831 5829 5827 5825 5823 5821 5819 5817 5815
5829 5832 5834 5835 5838 5839 5841 5844 5846 5847 5848 5849 5850 5850 5852 5851 5851 5851 5850 5850 5850 5850 5849 5848 5846 5845 5844 5842 5840 5838 5836 5834 5832 5829 5827 5825 5822 5820 5818 5816 5814 5812 5810 5808
5828 5830 5832 5834 5836 5838 5839 5841 5842 5844 5845 5846 5846 5846 5848 5848 5847 5847 5846 5846 5845 5845 5844 5844 5842 5841 5839 5837 5835 5832 5831 5829 5826 5824 5821 5819 5816 5814 5811 5809 5807 5805 5803 5801
5827 5829 5831 5833 5834 5836 5837 5839 5840 5840 5841 5842 5843 5842 5844 5844 5843 5842 5842 5841 5841 5840 5840 5839 5837 5835 5833 5832 5829 5827 5826 5823 5821 5818 5815 5813 5810 5807 5805 5802 5800 5798 5796 5793
5826 5828 5830 5830 5831 5833 5834 5836 5837 5838 5838 5838 5838 5837 5838 5837 5837 5837 5837 5837 5836 5836 5835 5834 5832 5830 5828 5827 5825 5822 5820 5817 5815 5812 5810 5807 5804 5801 5798 5795 5793 5790 5788 5786
5824 5827 5828 5828 5829 5830 5831 5832 5834 5834 5834 5834 5833 5832 5831 5832 5832 5832 5832 5832 5831 5830 5829 5828 5827 5825 5824 5822 5820 5817 5815 5812 5809 5807 5804 5801 5798 5795 5792 5789 5786 5784 5781 5779
5822 5824 5825 5826 5827 5828 5829 5830 5830 5830 5830 5829 5829 5828 5827 5827 5827 5826 5827 5827 5826 5825 5824 5823 5821 5820 5819 5817 5814 5812 5810 5807 5804 5801 5798 5795 5792 5789 5786 5783 5780 5778 5775 5773
5820 5822 5823 5824 5824 5826 5827 5827 5827 5827 5826 5826 5824 5827 5824 5823 5822 5821 5821 5822 5821 5821 5819 5818 5816 5815 5813 5811 5809 5807 5805 5802 5799 5796 5793 5789 5786 5783 5780 5777 5774 5772 5769 5767
5818 5820 5821 5822 5823 5823 5823 5824 5824 5824 5823 5822 5821 5824 5820 5819 5818 5817 5816 5816 5816 5815 5814 5813 5811 5809 5808 5806 5804 5802 5800 5797 5794 5790 5787 5784 5781 5777 5774 5771 5769 5766 5764 5761
5816 5818 5818 5819 5822 5821 5820 5820 5820 5820 5819 5818 5817 5819 5816 5814 5813 5812 5811 5811 5810 5809 5809 5807 5805 5804 5802 5800 5798 5797 5795 5792 5788 5785 5782 5779 5776 5773 5769 5767 5764 5761 5759 5756
5814 5815 5816 5817 5817 5817 5817 5816 5816 5815 5815 5814 5814 5814 5813 5811 5809 5808 5807 5805 5804 5803 5802 5801 5800 5798 5797 5795 5794 5791 5789 5786 5783 5780 5777 5774 5771 5768 5765 5762 5760 5757 5754 5752
5811 5812 5813 5813 5814 5813 5813 5813 5812 5812 5811 5811 5810 5809 5808 5807 5806 5804 5802 5801 5800 5798 5796 5795 5794 5793 5792 5790 5788 5786 5784 5781 5778 5775 5773 5770 5767 5764 5762 5759 5756 5753 5751 5748
5808 5809 5810 5810 5810 5810 5810 5809 5809 5808 5807 5807 5806 5805 5804 5802 5801 5800 5798 5796 5795 5793 5791 5789 5789 5788 5786 5785 5783 5782 5779 5777 5774 5771 5769 5766 5764 5761 5758 5756 5753 5750 5747 5745
5805 5805 5806 5806 5807 5806 5806 5806 5805 5805 5804 5803 5802 5801 5799 5798 5797 5795 5794 5792 5790 5789 5787 5785 5784 5783 5782 5781 5779 5777 5775 5772 5770 5768 5766 5763 5761 5758 5755 5753 5750 5747 5745 5742
5801 5802 5802 5802 5804 5803 5805 5803 5802 5801 5800 5799 5797 5797 5795 5794 5792 5791 5789 5788 5786 5785 5783 5781 5779 5779 5777 5776 5774 5773 5771 5768 5766 5765 5763 5760 5758 5755 5753 5750 5748 5745 5743 5741
5798 5799 5799 5799 5799 5799 5800 5799 5798 5797 5796 5795 5794 5793 5791 5790 5788 5787 5785 5784 5782 5780 5779 5777 5775 5774 5773 5772 5770 5769 5767 5766 5764 5762 5760 5758 5756 5753 5751 5748 5746 5744 5742 5739
5795 5796 5796 5796 5795 5795 5797 5796 5795 5795 5792 5792 5790 5789 5788 5786 5785 5784 5781 5780 5778 5776 5774 5773 5771 5770 5769 5768 5767 5766 5764 5763 5762 5760 5758 5756 5754 5752 5749 5747 5745 5743 5741 5739
5792 5792 5793 5793 5792 5792 5793 5792 5792 5792 5791 5788 5786 5785 5784 5782 5781 5780 5778 5776 5774 5773 5771 5769 5768 5767 5766 5765 5765 5763 5762 5761 5759 5758 5756 5754 5752 5750 5748 5746 5744 5742 5740 5738
5789 5790 5790 5790 5790 5792 5790 5789 5789 5788 5786 5784 5783 5781 5780 5778 5777 5775 5774 5772 5771 5770 5768 5767 5766 5765 5764 5763 5762 5761 5760 5759 5758 5756 5754 5753 5751 5749 5747 5745 5744 5742 5740 5738
5787 5788 5788 5788 5789 5788 5786 5786 5785 5784 5783 5781 5779 5778 5776 5775 5773 5772 5771 5769 5768 5767 5766 5765 5764 5763 5762 5761 5760 5759 5759 5758 5756 5755 5753 5752 5750 5748 5746 5745 5743 5742 5740 5738
5784 5784 5785 5785 5785 5784 5784 5783 5782 5781 5780 5778 5776 5775 5773 5772 5771 5769 5768 5767 5765 5764 5764 5763 5762 5761 5760 5759 5758 5758 5757 5756 5755 5754 5753 5751 5749 5748 5746 5745 5743 5742 5740 5738
5782 5782 5782 5782 5782 5781 5781 5780 5779 5778 5776 5775 5773 5772 5771 5769 5768 5767 5766 5764 5763 5763 5762 5761 5760 5760 5759 5758 5757 5757 5756 5755 5754 5753 5752 5751 5749 5748 5746 5745 5743 5742 5740 5739
5780 5780 5780 5780 5780 5780 5779 5778 5776 5775 5774 5772 5771 5769 5768 5766 5765 5765 5764 5763 5762 5761 5761 5760 5759 5759 5758 5757 5757 5756 5755 5755 5754 5753 5752 5750 5749 5748 5746 5745 5744 5742 5741 5740